Find OneWeb SL0247

NORAD ID: 48777 Int'l Des: 2021-045 Owner: ONEWEBN Country: UK Constellation: oneweb operational
LEOCIRCULARPOLARONEWEB_TYPE

Live Position

Loading 3D Globe...

About OneWeb SL0247

Description loading...

Upcoming Passes

Passes for default location (London). Set your location on the main map for personalized predictions.

Altitude History

Loading altitude history...

Two-Line Element Set

1 48777U 21045L 26127.38059780 .00000221 00000-0 55232-3 0 9998
2 48777 87.8967 267.3490 0002189 78.2968 281.8408 13.15548906239042
Epoch: May 7, 2026 • Age: 13 hours

Current Status

Altitude 1211.0 km
Velocity 7.25 km/s
Sub-Earth Point -23.97°S, 73.7°E
Launch Date May 28, 2021
Age 4.9 years
Type internet

Technical Details

Classification Payload
Mass 148.00 kg
Dry Mass 140.00 kg
Total Mass 148.00 kg
Length 1.30 m
Diameter 1.00 m
Span 5.00 m
Shape Trapezoid+2 pan
Manufacturer ONEWUS
Bus Type ARROW
Phase Status In Orbit
Owner/State ONEWEBN/UK

Most Searched